EW6571 Weather Reports


Display with metric or nautical units.
time (UTC)temp
F
wind
direction
speed
MPH
gust
MPH
rain 1hr
in
rain 24hr
in
rain mn
in
humidity
%
barometer
mb
20260502211554 65 303 3.0 9.0 0.00 0.00 0.00 27 1012.9
20260502210051 64 26 3.0 11.0 0.00 0.00 0.00 28 1013.3
20260502204548 63 288 4.0 7.0 0.00 0.00 0.00 29 1013.5
20260502203110 62 288 0.0 7.0 0.00 0.00 0.00 28 1013.6
20260502201552 62 318 2.0 8.0 0.00 0.00 0.00 28 1013.8
20260502200044 64 243 4.0 8.0 0.00 0.00 0.00 27 1014.0
20260502194541 63 305 6.0 13.0 0.00 0.00 0.00 27 1014.2
20260502193055 63 239 2.0 8.0 0.00 0.00 0.00 26 1014.3
20260502191540 64 226 3.0 9.0 0.00 0.00 0.00 28 1014.5
20260502190041 62 119 1.0 7.0 0.00 0.00 0.00 27 1014.9
20260502184539 62 235 11.0 15.0 0.00 0.00 0.00 29 1014.7
20260502183031 61 119 4.0 10.0 0.00 0.00 0.00 27 1015.5
20260502181530 61 145 3.0 7.0 0.00 0.00 0.00 30 1015.8
20260502163003 52 289 2.0 7.0 0.00 0.00 0.00 46 1017.4
20260502161558 50 288 1.0 5.0 0.00 0.00 0.00 45 1017.5
20260502151606 45 270 0.0 2.0 0.00 0.00 0.00 51 1017.9
20260502123011 30 268 1.0 9.0 0.00 0.00 0.00 71 1018.2
20260502121511 32 208 0.0 2.0 0.00 0.00 0.00 68 1018.1
20260502114506 32 208 0.0 3.0 0.00 0.00 0.00 71 1018.3
20260502113004 32 208 1.0 4.0 0.00 0.00 0.00 69 1018.2
20260502111503 32 208 0.0 0.0 0.00 0.00 0.00 68 1018.2
20260502110002 33 208 0.0 0.0 0.00 0.00 0.00 69 1018.1
20260502104610 33 208 0.0 0.0 0.00 0.00 0.00 69 1018.2
20260502103059 33 208 0.0 0.0 0.00 0.00 0.00 65 1018.3
20260502101610 34 208 0.0 4.0 0.00 0.00 0.00 65 1018.2
20260502070054 38 215 0.0 1.0 0.00 0.00 0.00 58 1017.8
20260502064533 38 215 1.0 4.0 0.00 0.00 0.00 61 1017.7
20260502063034 38 215 3.0 4.0 0.00 0.00 0.00 60 1017.5
20260502061528 38 215 2.0 4.0 0.00 0.00 0.00 59 1017.6
20260502060036 40 215 0.0 2.0 0.00 0.00 0.00 56 1017.5
20260502054538 39 215 3.0 6.0 0.00 0.00 0.00 59 1017.5
20260502053024 40 216 4.0 5.0 0.00 0.00 0.00 54 1017.4
20260502051524 41 216 0.0 4.0 0.00 0.00 0.00 54 1017.3
20260502050024 41 216 2.0 5.0 0.00 0.00 0.00 52 1017.3
20260502044522 42 217 1.0 4.0 0.00 0.00 0.00 49 1017.3
20260502043023 43 217 0.0 0.0 0.00 0.00 0.00 47 1017.3
20260502041534 43 217 3.0 6.0 0.00 0.00 0.00 46 1017.2
20260502040042 45 240 1.0 5.0 0.00 0.00 0.00 42 1016.8
20260502034520 49 140 2.0 8.0 0.00 0.00 0.00 33 1016.6
20260502033028 48 110 5.0 9.0 0.00 0.00 0.00 36 1016.4
20260502031520 50 150 1.0 6.0 0.00 0.00 0.00 32 1016.3
20260502030020 49 143 3.0 5.0 0.00 0.00 0.00 33 1016.0
20260502024519 48 188 3.0 4.0 0.00 0.00 0.00 39 1015.9
20260502023028 46 191 5.0 7.0 0.00 0.00 0.00 49 1015.7
20260502021517 48 195 5.0 7.0 0.00 0.00 0.00 46 1015.5
20260502020017 50 196 5.0 7.0 0.00 0.00 0.00 45 1015.6
20260502014518 51 201 4.0 7.0 0.00 0.00 0.00 42 1015.6
20260502013015 57 219 3.0 6.0 0.00 0.00 0.00 35 1015.6
20260502011515 60 301 1.0 5.0 0.00 0.00 0.00 25 1015.7
20260502010015 60 301 4.0 6.0 0.00 0.00 0.00 24 1015.8
20260502004513 61 302 5.0 8.0 0.00 0.00 0.00 23 1016.0
20260502003112 61 304 5.0 10.0 0.00 0.00 0.00 22 1015.8
20260502001511 62 275 6.0 10.0 0.00 0.00 0.00 21 1016.0
20260502000009 62 16 0.0 6.0 0.00 0.00 0.00 22 1016.0
20260501234512 61 261 2.0 10.0 0.00 0.00 0.00 22 1016.0
20260501233008 62 336 1.0 8.0 0.00 0.00 0.00 24 1016.1
20260501231505 61 300 8.0 12.0 0.00 0.00 0.00 23 1016.1
20260501230004 60 224 3.0 8.0 0.00 0.00 0.00 23 1016.2
20260501224502 60 355 5.0 10.0 0.00 0.00 0.00 23 1016.1
20260501223002 60 284 2.0 10.0 0.00 0.00 0.00 23 1016.3
20260501221611 60 13 2.0 8.0 0.00 0.00 0.00 23 1016.4
20260501220105 60 306 1.0 8.0 0.00 0.00 0.00 25 1016.6
20260501214554 59 39 3.0 6.0 0.00 0.00 0.00 26 1016.8
20260501213052 59 273 4.0 7.0 0.00 0.00 0.00 25 1017.0